Time,TemperatureF,DewpointF,PressureIn,WindDirection,WindDirectionDegrees,WindSpeedMPH,WindSpeedGustMPH,Humidity,HourlyPrecipIn,Conditions,Clouds,dailyrainin,SoftwareType,DateUTC
2013-05-30 14:13:00,90.3,59.8,29.91,SSE,163,0.0,0.0,36,0.00,,,0.00,WSDL version 423,2013-05-30 19:13:00,
2013-05-30 14:14:00,90.4,59.8,29.91,SSE,152,0.0,0.0,36,0.00,,,0.00,WSDL version 423,2013-05-30 19:14:00,
2013-05-30 14:16:00,90.4,59.9,29.91,SSE,163,0.0,0.0,36,0.00,,,0.00,WSDL version 423,2013-05-30 19:16:00,
2013-05-30 14:18:00,90.5,59.9,29.91,SE,129,0.0,0.0,36,0.00,,,0.00,WSDL version 423,2013-05-30 19:18:00,
2013-05-30 14:20:00,90.3,59.8,29.91,SSE,160,0.0,0.0,36,0.00,,,0.00,WSDL version 423,2013-05-30 19:20:00,
2013-05-30 14:21:00,90.3,59.7,29.91,SSE,160,0.0,0.0,36,0.00,,,0.00,WSDL version 423,2013-05-30 19:21:00,
2013-05-30 14:23:00,90.2,59.6,29.91,SSW,208,0.0,0.0,36,0.00,,,0.00,WSDL version 423,2013-05-30 19:23:00,
2013-05-30 14:24:00,90.1,59.6,29.91,SSW,197,0.0,0.0,36,0.00,,,0.00,WSDL version 423,2013-05-30 19:24:00,
2013-05-30 14:27:00,90.2,59.6,29.91,SSE,153,0.0,0.0,36,0.00,,,0.00,WSDL version 423,2013-05-30 19:27:00,
2013-05-30 14:28:00,90.3,59.6,29.91,ESE,113,0.0,0.0,36,0.00,,,0.00,WSDL version 423,2013-05-30 19:28:00,
2013-05-30 14:29:00,90.5,59.8,29.91,East,100,0.0,0.0,36,0.00,,,0.00,WSDL version 423,2013-05-30 19:29:00,
2013-05-30 14:32:00,91.0,60.4,29.91,SE,124,0.0,0.0,36,0.00,,,0.00,WSDL version 423,2013-05-30 19:32:00,
2013-05-30 14:33:00,91.1,60.5,29.91,SE,135,0.0,0.0,36,0.00,,,0.00,WSDL version 423,2013-05-30 19:33:00,
2013-05-30 14:34:00,91.2,60.6,29.91,SSE,165,0.0,0.0,36,0.00,,,0.00,WSDL version 423,2013-05-30 19:34:00,
2013-05-30 14:35:00,91.4,60.6,29.91,South,177,0.0,0.0,36,0.00,,,0.00,WSDL version 423,2013-05-30 19:35:00,
2013-05-30 14:36:00,91.5,60.5,29.91,South,172,0.0,0.0,35,0.00,,,0.00,WSDL version 423,2013-05-30 19:36:00,
2013-05-30 14:40:00,91.3,59.5,29.91,SSE,149,0.0,0.0,34,0.00,,,0.00,WSDL version 423,2013-05-30 19:40:00,
2013-05-30 14:41:00,91.2,59.2,29.91,SE,141,0.0,0.0,34,0.00,,,0.00,WSDL version 423,2013-05-30 19:41:00,
2013-05-30 14:42:00,91.1,59.1,29.91,SSE,158,0.0,0.0,35,0.00,,,0.00,WSDL version 423,2013-05-30 19:42:00,
2013-05-30 14:45:00,90.7,59.1,29.91,SSW,208,0.0,0.0,35,0.00,,,0.00,WSDL version 423,2013-05-30 19:45:00,
2013-05-30 14:46:00,90.6,59.3,29.88,South,172,0.0,0.0,35,0.00,,,0.00,WSDL version 423,2013-05-30 19:46:00,
2013-05-30 14:48:00,90.7,59.3,29.88,SSW,198,0.0,0.0,35,0.00,,,0.00,WSDL version 423,2013-05-30 19:48:00,
2013-05-30 14:49:00,90.8,59.4,29.88,South,190,0.0,0.0,35,0.00,,,0.00,WSDL version 423,2013-05-30 19:49:00,
2013-05-30 14:53:00,92.2,60.5,29.88,West,262,0.0,0.0,34,0.00,,,0.00,WSDL version 423,2013-05-30 19:53:00,
2013-05-30 14:54:00,92.5,60.6,29.88,SSE,163,0.0,0.0,34,0.00,,,0.00,WSDL version 423,2013-05-30 19:54:00,
2013-05-30 14:56:00,92.9,60.6,29.88,SSE,154,0.0,0.0,34,0.00,,,0.00,WSDL version 423,2013-05-30 19:56:00,
2013-05-30 14:58:00,92.9,60.3,29.88,SSE,150,0.0,0.0,34,0.00,,,0.00,WSDL version 423,2013-05-30 19:58:00,
2013-05-30 14:59:00,92.9,60.3,29.88,SSE,158,0.0,0.0,34,0.00,,,0.00,WSDL version 423,2013-05-30 19:59:00,
2013-05-30 15:00:00,93.0,60.3,29.88,SE,138,0.0,0.0,34,0.00,,,0.00,WSDL version 423,2013-05-30 20:00:00,
2013-05-30 15:01:00,93.0,60.4,29.88,ESE,120,0.0,0.0,34,0.00,,,0.00,WSDL version 423,2013-05-30 20:01:00,
2013-05-30 15:03:00,93.0,60.5,29.88,ESE,115,0.0,0.0,34,0.00,,,0.00,WSDL version 423,2013-05-30 20:03:00,
2013-05-30 15:04:00,93.0,60.5,29.88,SE,135,0.0,0.0,34,0.00,,,0.00,WSDL version 423,2013-05-30 20:04:00,
2013-05-30 15:06:00,93.0,60.3,29.88,SSE,158,0.0,0.0,33,0.00,,,0.00,WSDL version 423,2013-05-30 20:06:00,
2013-05-30 15:07:00,93.0,60.2,29.88,SE,127,0.0,0.0,33,0.00,,,0.00,WSDL version 423,2013-05-30 20:07:00,
2013-05-30 15:08:00,93.0,60.1,29.88,SE,143,0.0,0.0,33,0.00,,,0.00,WSDL version 423,2013-05-30 20:08:00,
2013-05-30 15:12:00,93.1,60.1,29.88,SSE,148,0.0,0.0,33,0.00,,,0.00,WSDL version 423,2013-05-30 20:12:00,
2013-05-30 15:13:00,93.3,60.2,29.88,ENE,59,0.0,0.0,33,0.00,,,0.00,WSDL version 423,2013-05-30 20:13:00,
2013-05-30 15:15:00,93.5,60.2,29.88,SE,140,0.0,0.0,33,0.00,,,0.00,WSDL version 423,2013-05-30 20:15:00,
2013-05-30 15:16:00,93.5,60.1,29.88,SE,143,0.0,0.0,33,0.00,,,0.00,WSDL version 423,2013-05-30 20:16:00,
2013-05-30 15:17:00,93.5,60.1,29.88,SSE,152,0.0,0.0,33,0.00,,,0.00,WSDL version 423,2013-05-30 20:17:00,
2013-05-30 15:22:00,93.3,58.9,29.88,SSE,153,0.0,0.0,33,0.00,,,0.00,WSDL version 423,2013-05-30 20:22:00,
2013-05-30 15:23:00,93.2,59.0,29.88,ESE,123,0.0,0.0,33,0.00,,,0.00,WSDL version 423,2013-05-30 20:23:00,
2013-05-30 15:24:00,93.2,59.1,29.88,SE,127,0.0,0.0,33,0.00,,,0.00,WSDL version 423,2013-05-30 20:24:00,
2013-05-30 15:25:00,93.1,59.6,29.88,SSE,150,0.0,0.0,33,0.00,,,0.00,WSDL version 423,2013-05-30 20:25:00,
2013-05-30 15:28:00,92.7,59.4,29.88,SSE,155,0.0,0.0,33,0.00,,,0.00,WSDL version 423,2013-05-30 20:28:00,
2013-05-30 15:30:00,92.6,59.5,29.88,SE,135,0.0,0.0,34,0.00,,,0.00,WSDL version 423,2013-05-30 20:30:00,
2013-05-30 15:32:00,92.4,59.5,29.88,East,90,0.0,0.0,33,0.00,,,0.00,WSDL version 423,2013-05-30 20:32:00,
2013-05-30 15:33:00,92.4,59.6,29.88,East,98,0.0,0.0,33,0.00,,,0.00,WSDL version 423,2013-05-30 20:33:00,
2013-05-30 15:35:00,92.4,59.3,29.88,NE,51,0.0,0.0,33,0.00,,,0.00,WSDL version 423,2013-05-30 20:35:00,
2013-05-30 15:36:00,92.5,59.3,29.88,SW,217,0.0,0.0,34,0.00,,,0.00,WSDL version 423,2013-05-30 20:36:00,
2013-05-30 15:38:00,92.6,59.4,29.88,SSE,166,0.0,0.0,33,0.00,,,0.00,WSDL version 423,2013-05-30 20:38:00,
2013-05-30 15:40:00,92.7,59.6,29.88,West,280,0.0,0.0,33,0.00,,,0.00,WSDL version 423,2013-05-30 20:40:00,
2013-05-30 15:42:00,92.8,59.5,29.88,SSE,163,0.0,0.0,33,0.00,,,0.00,WSDL version 423,2013-05-30 20:42:00,
2013-05-30 15:45:00,93.1,59.8,29.88,SSE,163,0.0,0.0,33,0.00,,,0.00,WSDL version 423,2013-05-30 20:45:00,
2013-05-30 15:47:00,93.2,59.9,29.85,SSE,148,0.0,0.0,33,0.00,,,0.00,WSDL version 423,2013-05-30 20:47:00,
2013-05-30 15:50:00,93.2,60.0,29.85,SSE,160,0.0,0.0,33,0.00,,,0.00,WSDL version 423,2013-05-30 20:50:00,
2013-05-30 15:52:00,93.2,59.9,29.85,SSE,155,0.0,0.0,33,0.00,,,0.00,WSDL version 423,2013-05-30 20:52:00,
2013-05-30 15:53:00,93.1,59.8,29.85,South,180,0.0,0.0,33,0.00,,,0.00,WSDL version 423,2013-05-30 20:53:00,
2013-05-30 15:56:00,92.6,59.3,29.85,South,177,0.0,0.0,33,0.00,,,0.00,WSDL version 423,2013-05-30 20:56:00,
2013-05-30 15:58:00,92.0,59.2,29.85,ENE,70,0.0,0.0,34,0.00,,,0.00,WSDL version 423,2013-05-30 20:58:00,
2013-05-30 15:59:00,91.8,59.2,29.85,ENE,76,0.0,0.0,34,0.00,,,0.00,WSDL version 423,2013-05-30 20:59:00,
2013-05-30 16:00:00,91.5,59.1,29.85,SE,129,0.0,0.0,34,0.00,,,0.00,WSDL version 423,2013-05-30 21:00:00,
2013-05-30 16:02:00,91.2,58.9,29.85,ESE,105,0.0,0.0,34,0.00,,,0.00,WSDL version 423,2013-05-30 21:02:00,
2013-05-30 16:05:00,90.7,58.8,29.85,SE,138,0.0,0.0,34,0.00,,,0.00,WSDL version 423,2013-05-30 21:05:00,
2013-05-30 16:06:00,90.6,58.8,29.85,SW,236,0.0,0.0,35,0.00,,,0.00,WSDL version 423,2013-05-30 21:06:00,
2013-05-30 16:08:00,90.5,58.6,29.85,SSE,165,0.0,0.0,34,0.00,,,0.00,WSDL version 423,2013-05-30 21:08:00,
2013-05-30 16:10:00,90.5,58.4,29.85,WSW,239,0.0,0.0,34,0.00,,,0.00,WSDL version 423,2013-05-30 21:10:00,
2013-05-30 16:11:00,90.4,58.4,29.85,SSE,152,0.0,0.0,35,0.00,,,0.00,WSDL version 423,2013-05-30 21:11:00,
2013-05-30 16:13:00,90.4,58.5,29.85,SSE,152,0.0,0.0,34,0.00,,,0.00,WSDL version 423,2013-05-30 21:13:00,
2013-05-30 16:16:00,90.3,58.3,29.88,SSE,155,0.0,0.0,34,0.00,,,0.00,WSDL version 423,2013-05-30 21:16:00,
2013-05-30 16:18:00,90.2,58.4,29.88,SE,125,0.0,0.0,35,0.00,,,0.00,WSDL version 423,2013-05-30 21:18:00,
2013-05-30 16:19:00,90.1,58.5,29.88,ENE,75,0.0,0.0,35,0.00,,,0.00,WSDL version 423,2013-05-30 21:19:00,
2013-05-30 16:22:00,89.5,58.2,29.88,SSE,155,0.0,0.0,35,0.00,,,0.00,WSDL version 423,2013-05-30 21:22:00,
2013-05-30 16:23:00,89.3,58.1,29.88,ESE,121,0.0,0.0,35,0.00,,,0.00,WSDL version 423,2013-05-30 21:23:00,
2013-05-30 16:24:00,89.1,57.9,29.88,ESE,113,0.0,0.0,35,0.00,,,0.00,WSDL version 423,2013-05-30 21:24:00,
2013-05-30 16:28:00,88.7,57.5,29.88,SSW,200,0.0,0.0,35,0.00,,,0.00,WSDL version 423,2013-05-30 21:28:00,
2013-05-30 16:29:00,88.7,57.6,29.88,SSE,158,0.0,0.0,35,0.00,,,0.00,WSDL version 423,2013-05-30 21:29:00,
2013-05-30 16:30:00,88.7,57.6,29.88,SE,124,0.0,0.0,35,0.00,,,0.00,WSDL version 423,2013-05-30 21:30:00,
2013-05-30 16:32:00,88.8,57.6,29.85,East,95,0.0,0.0,35,0.00,,,0.00,WSDL version 423,2013-05-30 21:32:00,
2013-05-30 16:34:00,89.0,58.2,29.85,SSW,193,0.0,0.0,36,0.00,,,0.00,WSDL version 423,2013-05-30 21:34:00,
2013-05-30 16:35:00,89.2,58.5,29.85,SSE,151,0.0,0.0,36,0.00,,,0.00,WSDL version 423,2013-05-30 21:35:00,
2013-05-30 16:37:00,89.5,58.8,29.85,SSE,151,0.0,0.0,35,0.00,,,0.00,WSDL version 423,2013-05-30 21:37:00,
2013-05-30 16:39:00,89.7,58.7,29.85,South,173,0.0,0.0,35,0.00,,,0.00,WSDL version 423,2013-05-30 21:39:00,
2013-05-30 16:40:00,89.7,58.6,29.85,South,190,0.0,0.0,35,0.00,,,0.00,WSDL version 423,2013-05-30 21:40:00,
2013-05-30 16:42:00,89.9,58.6,29.85,SW,219,0.0,0.0,35,0.00,,,0.00,WSDL version 423,2013-05-30 21:42:00,
2013-05-30 16:45:00,90.1,58.8,29.85,SE,141,0.0,0.0,35,0.00,,,0.00,WSDL version 423,2013-05-30 21:45:00,
2013-05-30 16:47:00,90.2,58.9,29.85,South,170,0.0,0.0,35,0.00,,,0.00,WSDL version 423,2013-05-30 21:47:00,
2013-05-30 16:49:00,90.4,58.9,29.85,South,177,0.0,0.0,34,0.00,,,0.00,WSDL version 423,2013-05-30 21:49:00,
2013-05-30 16:51:00,90.8,59.2,29.85,South,188,0.0,0.0,35,0.00,,,0.00,WSDL version 423,2013-05-30 21:51:00,
2013-05-30 16:52:00,90.9,59.3,29.85,SSE,166,0.0,0.0,35,0.00,,,0.00,WSDL version 423,2013-05-30 21:52:00,
2013-05-30 16:55:00,91.1,59.7,29.85,SE,132,0.0,0.0,35,0.00,,,0.00,WSDL version 423,2013-05-30 21:55:00,
2013-05-30 16:57:00,91.1,59.7,29.85,South,170,0.0,0.0,35,0.00,,,0.00,WSDL version 423,2013-05-30 21:57:00,
2013-05-30 16:58:00,91.0,59.4,29.85,SSW,203,0.0,0.0,34,0.00,,,0.00,WSDL version 423,2013-05-30 21:58:00,
2013-05-30 16:59:00,90.9,59.2,29.85,SSE,160,0.0,0.0,35,0.00,,,0.00,WSDL version 423,2013-05-30 21:59:00,
2013-05-30 17:02:00,90.7,59.0,29.85,SE,138,0.0,0.0,35,0.00,,,0.00,WSDL version 423,2013-05-30 22:02:00,
2013-05-30 17:04:00,90.6,59.2,29.85,WSW,257,0.0,0.0,35,0.00,,,0.00,WSDL version 423,2013-05-30 22:04:00,
2013-05-30 17:06:00,90.6,59.2,29.85,South,180,0.0,0.0,35,0.00,,,0.00,WSDL version 423,2013-05-30 22:06:00,
2013-05-30 17:07:00,90.6,59.3,29.85,ESE,122,0.0,0.0,35,0.00,,,0.00,WSDL version 423,2013-05-30 22:07:00,
2013-05-30 17:08:00,90.7,59.3,29.85,SE,127,0.0,0.0,35,0.00,,,0.00,WSDL version 423,2013-05-30 22:08:00,
2013-05-30 17:10:00,90.6,59.2,29.85,South,177,0.0,0.0,35,0.00,,,0.00,WSDL version 423,2013-05-30 22:10:00,
2013-05-30 17:11:00,90.6,59.2,29.85,SSE,155,0.0,0.0,35,0.00,,,0.00,WSDL version 423,2013-05-30 22:11:00,
2013-05-30 17:13:00,90.6,59.3,29.85,East,98,0.0,0.0,36,0.00,,,0.00,WSDL version 423,2013-05-30 22:13:00,
2013-05-30 17:14:00,90.5,59.4,29.85,ESE,110,0.0,0.0,36,0.00,,,0.00,WSDL version 423,2013-05-30 22:14:00,
2013-05-30 17:17:00,90.3,59.6,29.85,ESE,104,0.0,0.0,36,0.00,,,0.00,WSDL version 423,2013-05-30 22:17:00,
2013-05-30 17:18:00,90.2,59.5,29.85,SE,130,0.0,0.0,36,0.00,,,0.00,WSDL version 423,2013-05-30 22:18:00,
2013-05-30 17:19:00,90.0,59.5,29.85,SE,128,0.0,0.0,36,0.00,,,0.00,WSDL version 423,2013-05-30 22:19:00,
2013-05-30 17:23:00,89.6,59.3,29.85,East,90,0.0,0.0,37,0.00,,,0.00,WSDL version 423,2013-05-30 22:23:00,
2013-05-30 17:24:00,89.4,59.3,29.85,East,87,0.0,0.0,37,0.00,,,0.00,WSDL version 423,2013-05-30 22:24:00,
2013-05-30 17:26:00,89.1,59.3,29.85,ESE,108,0.0,0.0,37,0.00,,,0.00,WSDL version 423,2013-05-30 22:26:00,
2013-05-30 17:28:00,88.8,59.3,29.85,ESE,113,0.0,0.0,38,0.00,,,0.00,WSDL version 423,2013-05-30 22:28:00,
2013-05-30 17:30:00,88.7,59.5,29.85,East,96,0.0,0.0,38,0.00,,,0.00,WSDL version 423,2013-05-30 22:30:00,
2013-05-30 17:32:00,88.7,60.0,29.85,NNE,20,0.0,0.0,39,0.00,,,0.00,WSDL version 423,2013-05-30 22:32:00,
2013-05-30 17:33:00,88.8,60.2,29.85,East,85,0.0,0.0,40,0.00,,,0.00,WSDL version 423,2013-05-30 22:33:00,
2013-05-30 17:34:00,88.9,60.7,29.85,East,87,0.0,0.0,40,0.00,,,0.00,WSDL version 423,2013-05-30 22:34:00,
2013-05-30 17:36:00,88.9,61.3,29.85,East,96,0.0,0.0,41,0.00,,,0.00,WSDL version 423,2013-05-30 22:36:00,
2013-05-30 17:38:00,88.8,61.6,29.85,ESE,121,0.0,0.0,41,0.00,,,0.00,WSDL version 423,2013-05-30 22:38:00,
2013-05-30 17:40:00,88.6,61.7,29.85,ESE,116,0.0,0.0,41,0.00,,,0.00,WSDL version 423,2013-05-30 22:40:00,
2013-05-30 17:41:00,88.5,61.7,29.85,East,93,0.0,0.0,41,0.00,,,0.00,WSDL version 423,2013-05-30 22:41:00,
2013-05-30 17:43:00,88.4,61.6,29.85,ESE,123,0.0,0.0,41,0.00,,,0.00,WSDL version 423,2013-05-30 22:43:00,
2013-05-30 17:44:00,88.3,61.7,29.85,SE,141,0.0,0.0,41,0.00,,,0.00,WSDL version 423,2013-05-30 22:44:00,
2013-05-30 17:45:00,88.2,61.6,29.85,ESE,116,0.0,0.0,41,0.00,,,0.00,WSDL version 423,2013-05-30 22:45:00,
2013-05-30 17:46:00,88.1,61.4,29.85,ENE,78,0.0,0.0,41,0.00,,,0.00,WSDL version 423,2013-05-30 22:46:00,
2013-05-30 17:47:00,88.1,61.3,29.85,NE,45,0.0,0.0,41,0.00,,,0.00,WSDL version 423,2013-05-30 22:47:00,
2013-05-30 17:49:00,88.0,61.0,29.85,SSE,163,0.0,0.0,41,0.00,,,0.00,WSDL version 423,2013-05-30 22:49:00,
2013-05-30 17:51:00,88.0,61.1,29.85,ESE,118,0.0,0.0,41,0.00,,,0.00,WSDL version 423,2013-05-30 22:51:00,
2013-05-30 17:52:00,88.1,61.3,29.85,ESE,104,0.0,0.0,41,0.00,,,0.00,WSDL version 423,2013-05-30 22:52:00,
2013-05-30 17:55:00,88.1,61.7,29.85,East,84,0.0,0.0,41,0.00,,,0.00,WSDL version 423,2013-05-30 22:55:00,
2013-05-30 17:56:00,88.1,61.8,29.85,ESE,110,0.0,0.0,41,0.00,,,0.00,WSDL version 423,2013-05-30 22:56:00,
2013-05-30 17:58:00,88.1,61.8,29.85,ESE,107,0.0,0.0,41,0.00,,,0.00,WSDL version 423,2013-05-30 22:58:00,
2013-05-30 18:01:00,88.0,61.8,29.85,ESE,115,0.0,0.0,42,0.00,,,0.00,WSDL version 423,2013-05-30 23:01:00,
2013-05-30 18:03:00,87.9,61.9,29.85,ENE,76,0.0,0.0,42,0.00,,,0.00,WSDL version 423,2013-05-30 23:03:00,
2013-05-30 18:04:00,88.0,62.2,29.85,SSE,158,0.0,0.0,42,0.00,,,0.00,WSDL version 423,2013-05-30 23:04:00,
2013-05-30 18:05:00,88.0,62.3,29.85,SE,138,0.0,0.0,42,0.00,,,0.00,WSDL version 423,2013-05-30 23:05:00,
2013-05-30 18:08:00,88.4,62.1,29.85,ESE,108,0.0,0.0,41,0.00,,,0.00,WSDL version 423,2013-05-30 23:08:00,
2013-05-30 18:09:00,88.5,62.0,29.85,East,98,0.0,0.0,41,0.00,,,0.00,WSDL version 423,2013-05-30 23:09:00,
2013-05-30 18:13:00,88.8,61.0,29.85,East,87,0.0,0.0,39,0.00,,,0.00,WSDL version 423,2013-05-30 23:13:00,
2013-05-30 18:14:00,88.8,60.9,29.85,East,90,0.0,0.0,40,0.00,,,0.00,WSDL version 423,2013-05-30 23:14:00,
2013-05-30 18:15:00,88.7,61.0,29.85,East,93,0.0,0.0,40,0.00,,,0.00,WSDL version 423,2013-05-30 23:15:00,
2013-05-30 18:16:00,88.7,61.0,29.85,East,98,0.0,0.0,41,0.00,,,0.00,WSDL version 423,2013-05-30 23:16:00,
2013-05-30 18:19:00,88.4,61.6,29.85,ESE,104,0.0,0.0,41,0.00,,,0.00,WSDL version 423,2013-05-30 23:19:00,
2013-05-30 18:21:00,88.1,61.9,29.85,SSE,152,0.0,0.0,42,0.00,,,0.00,WSDL version 423,2013-05-30 23:21:00,
2013-05-30 18:22:00,87.9,61.7,29.85,ESE,110,0.0,0.0,41,0.00,,,0.00,WSDL version 423,2013-05-30 23:22:00,
2013-05-30 18:23:00,87.9,61.7,29.85,SE,146,0.0,0.0,41,0.00,,,0.00,WSDL version 423,2013-05-30 23:23:00,
2013-05-30 18:25:00,87.7,61.6,29.85,East,95,0.0,0.0,41,0.00,,,0.00,WSDL version 423,2013-05-30 23:25:00,
2013-05-30 18:27:00,87.6,61.6,29.85,East,101,0.0,0.0,42,0.00,,,0.00,WSDL version 423,2013-05-30 23:27:00,
2013-05-30 18:28:00,87.5,61.6,29.85,East,101,0.0,0.0,42,0.00,,,0.00,WSDL version 423,2013-05-30 23:28:00,
2013-05-30 18:30:00,87.3,61.8,29.85,ENE,76,0.0,0.0,43,0.00,,,0.00,WSDL version 423,2013-05-30 23:30:00,
2013-05-30 18:32:00,87.2,62.0,29.85,East,85,0.0,0.0,44,0.00,,,0.00,WSDL version 423,2013-05-30 23:32:00,
2013-05-30 18:33:00,87.1,62.2,29.85,ESE,113,0.0,0.0,44,0.00,,,0.00,WSDL version 423,2013-05-30 23:33:00,
2013-05-30 18:37:00,86.7,62.5,29.85,East,96,0.0,0.0,45,0.00,,,0.00,WSDL version 423,2013-05-30 23:37:00,
2013-05-30 18:38:00,86.6,62.5,29.85,East,85,0.0,0.0,45,0.00,,,0.00,WSDL version 423,2013-05-30 23:38:00,
2013-05-30 18:39:00,86.5,62.5,29.85,East,88,0.0,0.0,45,0.00,,,0.00,WSDL version 423,2013-05-30 23:39:00,
2013-05-30 18:43:00,85.9,62.2,29.85,SE,132,0.0,0.0,45,0.00,,,0.00,WSDL version 423,2013-05-30 23:43:00,
2013-05-30 18:45:00,85.6,61.6,29.85,East,90,0.0,0.0,44,0.00,,,0.00,WSDL version 423,2013-05-30 23:45:00,
2013-05-30 18:48:00,85.2,61.1,29.85,East,80,0.0,0.0,44,0.00,,,0.00,WSDL version 423,2013-05-30 23:48:00,
2013-05-30 18:49:00,85.1,61.1,29.85,ESE,107,0.0,0.0,45,0.00,,,0.00,WSDL version 423,2013-05-30 23:49:00,
2013-05-30 18:50:00,84.9,61.1,29.85,ESE,115,0.0,0.0,45,0.00,,,0.00,WSDL version 423,2013-05-30 23:50:00,
2013-05-30 18:51:00,84.8,61.0,29.85,ESE,115,0.0,0.0,45,0.00,,,0.00,WSDL version 423,2013-05-30 23:51:00,
2013-05-30 18:54:00,84.4,61.1,29.85,ESE,107,0.0,0.0,46,0.00,,,0.00,WSDL version 423,2013-05-30 23:54:00,
2013-05-30 18:58:00,83.9,61.2,29.85,ENE,77,0.0,0.0,47,0.00,,,0.00,WSDL version 423,2013-05-30 23:58:00,
2013-05-30 18:59:00,83.8,61.2,29.85,East,85,0.0,0.0,47,0.00,,,0.00,WSDL version 423,2013-05-30 23:59:00,
2013-05-30 19:00:00,83.7,61.3,29.85,ESE,110,0.0,0.0,47,0.00,,,0.00,WSDL version 423,2013-05-31 00:00:00,
2013-05-30 19:03:00,83.5,61.4,29.85,East,85,0.0,0.0,48,0.00,,,0.00,WSDL version 423,2013-05-31 00:03:00,
2013-05-30 19:06:00,83.3,61.7,29.85,East,101,0.0,0.0,49,0.00,,,0.00,WSDL version 423,2013-05-31 00:06:00,
2013-05-30 19:07:00,83.3,61.8,29.85,ESE,115,0.0,0.0,49,0.00,,,0.00,WSDL version 423,2013-05-31 00:07:00,
2013-05-30 19:08:00,83.2,62.0,29.85,ENE,70,0.0,0.0,49,0.00,,,0.00,WSDL version 423,2013-05-31 00:08:00,
2013-05-30 19:09:00,83.2,62.0,29.85,ESE,110,0.0,0.0,49,0.00,,,0.00,WSDL version 423,2013-05-31 00:09:00,
2013-05-30 19:11:00,83.1,62.1,29.85,ESE,115,0.0,0.0,50,0.00,,,0.00,WSDL version 423,2013-05-31 00:11:00,
2013-05-30 19:15:00,83.0,62.3,29.85,ESE,106,0.0,0.0,50,0.00,,,0.00,WSDL version 423,2013-05-31 00:15:00,
2013-05-30 19:17:00,83.0,62.5,29.85,East,96,0.0,0.0,51,0.00,,,0.00,WSDL version 423,2013-05-31 00:17:00,
2013-05-30 19:18:00,82.9,62.5,29.85,ESE,103,0.0,0.0,51,0.00,,,0.00,WSDL version 423,2013-05-31 00:18:00,
2013-05-30 19:19:00,82.9,62.6,29.85,East,80,0.0,0.0,51,0.00,,,0.00,WSDL version 423,2013-05-31 00:19:00,
2013-05-30 19:23:00,82.7,62.5,29.85,ESE,115,0.0,0.0,51,0.00,,,0.00,WSDL version 423,2013-05-31 00:23:00,
2013-05-30 19:24:00,82.7,62.6,29.85,ESE,113,0.0,0.0,52,0.00,,,0.00,WSDL version 423,2013-05-31 00:24:00,
2013-05-30 19:27:00,82.6,62.7,29.85,East,93,0.0,0.0,52,0.00,,,0.00,WSDL version 423,2013-05-31 00:27:00,
2013-05-30 19:28:00,82.5,62.8,29.85,East,79,0.0,0.0,52,0.00,,,0.00,WSDL version 423,2013-05-31 00:28:00,
2013-05-30 19:29:00,82.4,62.9,29.85,ENE,74,0.0,0.0,52,0.00,,,0.00,WSDL version 423,2013-05-31 00:29:00,
2013-05-30 19:30:00,82.3,63.1,29.85,East,98,0.0,0.0,53,0.00,,,0.00,WSDL version 423,2013-05-31 00:30:00,
2013-05-30 19:32:00,82.2,63.3,29.85,East,98,0.0,0.0,53,0.00,,,0.00,WSDL version 423,2013-05-31 00:32:00,
2013-05-30 19:35:00,82.0,63.5,29.85,East,101,0.0,0.0,53,0.00,,,0.00,WSDL version 423,2013-05-31 00:35:00,
2013-05-30 19:36:00,81.9,63.5,29.85,East,101,0.0,0.0,54,0.00,,,0.00,WSDL version 423,2013-05-31 00:36:00,
2013-05-30 19:37:00,81.9,63.6,29.85,East,96,0.0,0.0,54,0.00,,,0.00,WSDL version 423,2013-05-31 00:37:00,
2013-05-30 19:39:00,81.8,63.7,29.85,East,85,0.0,0.0,55,0.00,,,0.00,WSDL version 423,2013-05-31 00:39:00,
2013-05-30 19:40:00,81.8,63.8,29.85,East,101,0.0,0.0,55,0.00,,,0.00,WSDL version 423,2013-05-31 00:40:00,
2013-05-30 19:41:00,81.7,63.8,29.85,ESE,105,0.0,0.0,55,0.00,,,0.00,WSDL version 423,2013-05-31 00:41:00,
2013-05-30 19:42:00,81.6,63.9,29.85,SE,128,0.0,0.0,56,0.00,,,0.00,WSDL version 423,2013-05-31 00:42:00,
2013-05-30 19:45:00,81.5,64.2,29.85,East,85,0.0,0.0,57,0.00,,,0.00,WSDL version 423,2013-05-31 00:45:00,
2013-05-30 19:46:00,81.4,64.3,29.85,ESE,104,0.0,0.0,57,0.00,,,0.00,WSDL version 423,2013-05-31 00:46:00,
2013-05-30 19:47:00,81.4,64.3,29.85,East,90,0.0,0.0,56,0.00,,,0.00,WSDL version 423,2013-05-31 00:47:00,
2013-05-30 19:49:00,81.3,64.5,29.85,ESE,105,0.0,0.0,57,0.00,,,0.00,WSDL version 423,2013-05-31 00:49:00,
2013-05-30 19:50:00,81.3,64.6,29.85,East,101,0.0,0.0,58,0.00,,,0.00,WSDL version 423,2013-05-31 00:50:00,
2013-05-30 19:52:00,81.2,64.9,29.85,East,93,0.0,0.0,59,0.00,,,0.00,WSDL version 423,2013-05-31 00:52:00,
2013-05-30 19:54:00,81.1,65.4,29.85,ESE,113,0.0,0.0,60,0.00,,,0.00,WSDL version 423,2013-05-31 00:54:00,
2013-05-30 19:55:00,81.1,65.6,29.85,ESE,104,0.0,0.0,61,0.00,,,0.00,WSDL version 423,2013-05-31 00:55:00,
2013-05-30 19:57:00,80.9,65.7,29.85,ESE,104,0.0,0.0,60,0.00,,,0.00,WSDL version 423,2013-05-31 00:57:00,
2013-05-30 20:02:00,80.8,65.6,29.85,SE,141,0.0,0.0,60,0.00,,,0.00,WSDL version 423,2013-05-31 01:02:00,
2013-05-30 20:03:00,80.8,65.6,29.85,SSE,152,0.0,0.0,60,0.00,,,0.00,WSDL version 423,2013-05-31 01:03:00,
2013-05-30 20:04:00,80.8,65.5,29.85,SE,135,0.0,0.0,60,0.00,,,0.00,WSDL version 423,2013-05-31 01:04:00,
2013-05-30 20:08:00,80.6,65.7,29.85,East,93,0.0,0.0,62,0.00,,,0.00,WSDL version 423,2013-05-31 01:08:00,
2013-05-30 20:09:00,80.6,65.7,29.85,SE,146,0.0,0.0,61,0.00,,,0.00,WSDL version 423,2013-05-31 01:09:00,
2013-05-30 20:10:00,80.6,65.9,29.85,East,96,0.0,0.0,62,0.00,,,0.00,WSDL version 423,2013-05-31 01:10:00,
2013-05-30 20:11:00,80.6,66.0,29.85,ENE,74,0.0,0.0,62,0.00,,,0.00,WSDL version 423,2013-05-31 01:11:00,
2013-05-30 20:14:00,80.6,66.0,29.85,SE,125,0.0,0.0,62,0.00,,,0.00,WSDL version 423,2013-05-31 01:14:00,
2013-05-30 20:17:00,80.5,66.0,29.88,ESE,113,0.0,0.0,62,0.00,,,0.00,WSDL version 423,2013-05-31 01:17:00,
2013-05-30 20:19:00,80.4,66.1,29.88,East,84,0.0,0.0,62,0.00,,,0.00,WSDL version 423,2013-05-31 01:19:00,
2013-05-30 20:22:00,80.4,66.3,29.88,SE,127,0.0,0.0,62,0.00,,,0.00,WSDL version 423,2013-05-31 01:22:00,
2013-05-30 20:23:00,80.4,66.3,29.88,East,101,0.0,0.0,62,0.00,,,0.00,WSDL version 423,2013-05-31 01:23:00,
2013-05-30 20:24:00,80.4,66.3,29.88,East,98,0.0,0.0,62,0.00,,,0.00,WSDL version 423,2013-05-31 01:24:00,
2013-05-30 20:25:00,80.4,66.5,29.88,ESE,115,0.0,0.0,63,0.00,,,0.00,WSDL version 423,2013-05-31 01:25:00,
2013-05-30 20:28:00,80.4,66.7,29.88,ESE,110,0.0,0.0,62,0.00,,,0.00,WSDL version 423,2013-05-31 01:28:00,
2013-05-30 20:29:00,80.4,66.7,29.88,East,84,0.0,0.0,62,0.00,,,0.00,WSDL version 423,2013-05-31 01:29:00,
2013-05-30 20:30:00,80.5,66.6,29.88,East,98,0.0,0.0,62,0.00,,,0.00,WSDL version 423,2013-05-31 01:30:00,
2013-05-30 20:32:00,80.5,66.7,29.88,ESE,115,0.0,0.0,63,0.00,,,0.00,WSDL version 423,2013-05-31 01:32:00,
2013-05-30 20:33:00,80.6,66.7,29.88,ESE,113,0.0,0.0,62,0.00,,,0.00,WSDL version 423,2013-05-31 01:33:00,
2013-05-30 20:35:00,80.6,66.8,29.88,East,95,0.0,0.0,63,0.00,,,0.00,WSDL version 423,2013-05-31 01:35:00,
2013-05-30 20:37:00,80.6,66.9,29.88,ESE,118,0.0,0.0,63,0.00,,,0.00,WSDL version 423,2013-05-31 01:37:00,
2013-05-30 20:38:00,80.6,67.0,29.88,ESE,104,0.0,0.0,63,0.00,,,0.00,WSDL version 423,2013-05-31 01:38:00,
2013-05-30 20:40:00,80.6,67.0,29.88,ESE,110,0.0,0.0,63,0.00,,,0.00,WSDL version 423,2013-05-31 01:40:00,
2013-05-30 20:42:00,80.6,66.9,29.88,ENE,73,0.0,0.0,62,0.00,,,0.00,WSDL version 423,2013-05-31 01:42:00,
2013-05-30 20:43:00,80.6,66.9,29.88,ENE,70,0.0,0.0,63,0.00,,,0.00,WSDL version 423,2013-05-31 01:43:00,
2013-05-30 20:44:00,80.6,67.0,29.88,East,85,0.0,0.0,64,0.00,,,0.00,WSDL version 423,2013-05-31 01:44:00,
2013-05-30 20:49:00,80.6,67.7,29.88,ESE,122,0.0,0.0,68,0.00,,,0.00,WSDL version 423,2013-05-31 01:49:00,
2013-05-30 20:50:00,80.5,68.1,29.88,South,174,0.0,0.0,69,0.00,,,0.00,WSDL version 423,2013-05-31 01:50:00,
2013-05-30 20:51:00,80.4,68.6,29.88,SSW,195,0.0,0.0,69,0.00,,,0.00,WSDL version 423,2013-05-31 01:51:00,
2013-05-30 20:52:00,80.2,68.8,29.88,South,180,0.0,0.0,68,0.00,,,0.00,WSDL version 423,2013-05-31 01:52:00,
2013-05-30 20:54:00,79.8,68.6,29.88,SSE,166,0.0,0.0,69,0.00,,,0.00,WSDL version 423,2013-05-31 01:54:00,
2013-05-30 20:56:00,79.4,68.1,29.88,South,185,0.0,0.0,67,0.00,,,0.00,WSDL version 423,2013-05-31 01:56:00,
2013-05-30 20:58:00,79.1,67.6,29.88,SW,230,0.0,0.0,68,0.00,,,0.00,WSDL version 423,2013-05-31 01:58:00,
2013-05-30 21:00:00,78.5,66.9,29.88,NW,326,0.0,0.0,68,0.00,,,0.00,WSDL version 423,2013-05-31 02:00:00,
2013-05-30 21:01:00,78.3,67.0,29.88,ESE,122,0.0,0.0,70,0.00,,,0.00,WSDL version 423,2013-05-31 02:01:00,
2013-05-30 21:04:00,77.4,67.0,29.88,ENE,64,0.0,0.0,72,0.00,,,0.00,WSDL version 423,2013-05-31 02:04:00,
2013-05-30 21:05:00,77.2,67.1,29.88,East,88,0.0,0.0,72,0.00,,,0.00,WSDL version 423,2013-05-31 02:05:00,
2013-05-30 21:07:00,76.8,67.0,29.88,ESE,116,0.0,0.0,72,0.00,,,0.00,WSDL version 423,2013-05-31 02:07:00,
2013-05-30 21:08:00,76.7,66.9,29.88,ESE,113,0.0,0.0,72,0.00,,,0.00,WSDL version 423,2013-05-31 02:08:00,
2013-05-30 21:13:00,75.4,66.0,29.88,ESE,115,0.0,0.0,72,0.00,,,0.00,WSDL version 423,2013-05-31 02:13:00,
2013-05-30 21:15:00,74.9,65.5,29.88,SE,138,0.0,0.0,72,0.00,,,0.00,WSDL version 423,2013-05-31 02:15:00,
2013-05-30 21:17:00,74.6,65.1,29.88,ESE,110,0.0,0.0,72,0.00,,,0.00,WSDL version 423,2013-05-31 02:17:00,
2013-05-30 21:18:00,74.5,65.2,29.88,North,354,0.0,0.0,73,0.00,,,0.00,WSDL version 423,2013-05-31 02:18:00,
2013-05-30 21:20:00,74.3,65.1,29.88,East,93,0.0,0.0,74,0.00,,,0.00,WSDL version 423,2013-05-31 02:20:00,
2013-05-30 21:23:00,73.8,65.2,29.88,ESE,105,0.0,0.0,75,0.00,,,0.00,WSDL version 423,2013-05-31 02:23:00,
2013-05-30 21:24:00,73.6,65.2,29.88,East,93,0.0,0.0,75,0.00,,,0.00,WSDL version 423,2013-05-31 02:24:00,
2013-05-30 21:25:00,73.5,65.2,29.88,East,93,0.0,0.0,75,0.00,,,0.00,WSDL version 423,2013-05-31 02:25:00,
2013-05-30 21:27:00,73.3,65.0,29.88,ENE,78,0.0,0.0,75,0.00,,,0.00,WSDL version 423,2013-05-31 02:27:00,
2013-05-30 21:28:00,73.2,64.9,29.88,ESE,119,0.0,0.0,75,0.00,,,0.00,WSDL version 423,2013-05-31 02:28:00,
2013-05-30 21:30:00,73.1,64.8,29.88,South,188,0.0,0.0,75,0.00,,,0.00,WSDL version 423,2013-05-31 02:30:00,
2013-05-30 21:32:00,73.0,64.7,29.91,West,273,0.0,0.0,75,0.00,,,0.00,WSDL version 423,2013-05-31 02:32:00,
2013-05-30 21:33:00,72.9,64.6,29.91,East,95,0.0,0.0,75,0.00,,,0.00,WSDL version 423,2013-05-31 02:33:00,
2013-05-30 21:36:00,72.7,64.4,29.91,ESE,116,0.0,0.0,75,0.00,,,0.00,WSDL version 423,2013-05-31 02:36:00,
2013-05-30 21:37:00,72.7,64.4,29.91,SSW,194,0.0,0.0,75,0.00,,,0.00,WSDL version 423,2013-05-31 02:37:00,
2013-05-30 21:38:00,72.7,64.4,29.91,South,177,0.0,0.0,75,0.00,,,0.00,WSDL version 423,2013-05-31 02:38:00,
2013-05-30 21:40:00,72.7,64.6,29.91,South,172,0.0,0.0,76,0.00,,,0.00,WSDL version 423,2013-05-31 02:40:00,
2013-05-30 21:41:00,72.8,64.8,29.91,SSE,163,0.0,0.0,77,0.00,,,0.00,WSDL version 423,2013-05-31 02:41:00,
2013-05-30 21:42:00,72.8,64.9,29.91,SE,138,0.0,0.0,76,0.00,,,0.00,WSDL version 423,2013-05-31 02:42:00,
2013-05-30 21:45:00,72.8,65.2,29.91,SSE,155,0.0,0.0,77,0.00,,,0.00,WSDL version 423,2013-05-31 02:45:00,
2013-05-30 21:46:00,72.8,65.1,29.91,SSE,152,0.0,0.0,76,0.00,,,0.00,WSDL version 423,2013-05-31 02:46:00,
2013-05-30 21:49:00,72.7,65.0,29.91,East,90,0.0,0.0,77,0.00,,,0.00,WSDL version 423,2013-05-31 02:49:00,
2013-05-30 21:50:00,72.7,65.0,29.91,East,90,0.0,0.0,77,0.00,,,0.00,WSDL version 423,2013-05-31 02:50:00,
2013-05-30 21:51:00,72.6,65.0,29.91,East,90,0.0,0.0,77,0.00,,,0.00,WSDL version 423,2013-05-31 02:51:00,
2013-05-30 21:55:00,72.4,65.2,29.91,East,93,0.0,0.0,79,0.00,,,0.00,WSDL version 423,2013-05-31 02:55:00,
2013-05-30 21:56:00,72.3,65.3,29.91,East,93,0.0,0.0,80,0.00,,,0.00,WSDL version 423,2013-05-31 02:56:00,
2013-05-30 21:57:00,72.3,65.3,29.91,East,79,0.0,0.0,80,0.00,,,0.00,WSDL version 423,2013-05-31 02:57:00,
2013-05-30 21:58:00,72.2,65.5,29.91,East,93,0.0,0.0,81,0.00,,,0.00,WSDL version 423,2013-05-31 02:58:00,
2013-05-30 22:01:00,72.1,65.7,29.91,ESE,110,0.0,0.0,80,0.00,,,0.00,WSDL version 423,2013-05-31 03:01:00,
2013-05-30 22:02:00,72.1,65.7,29.91,SE,129,0.0,0.0,80,0.00,,,0.00,WSDL version 423,2013-05-31 03:02:00,
2013-05-30 22:04:00,72.0,65.5,29.91,East,96,0.0,0.0,80,0.00,,,0.00,WSDL version 423,2013-05-31 03:04:00,
2013-05-30 22:06:00,72.0,65.5,29.91,East,90,0.0,0.0,80,0.00,,,0.00,WSDL version 423,2013-05-31 03:06:00,
2013-05-30 22:07:00,71.9,65.5,29.91,East,90,0.0,0.0,81,0.00,,,0.00,WSDL version 423,2013-05-31 03:07:00,
2013-05-30 22:12:00,71.8,65.6,29.91,East,90,0.0,0.0,81,0.00,,,0.00,WSDL version 423,2013-05-31 03:12:00,
2013-05-30 22:13:00,71.8,65.7,29.91,East,90,0.0,0.0,81,0.00,,,0.00,WSDL version 423,2013-05-31 03:13:00,
2013-05-30 22:14:00,71.8,65.7,29.91,East,90,0.0,0.0,81,0.00,,,0.00,WSDL version 423,2013-05-31 03:14:00,
2013-05-30 22:16:00,71.8,65.7,29.94,East,90,0.0,0.0,81,0.00,,,0.00,WSDL version 423,2013-05-31 03:16:00,
2013-05-30 22:18:00,71.7,65.6,29.94,East,90,0.0,0.0,81,0.00,,,0.00,WSDL version 423,2013-05-31 03:18:00,
2013-05-30 22:20:00,71.6,65.5,29.94,East,90,0.0,0.0,81,0.00,,,0.00,WSDL version 423,2013-05-31 03:20:00,
2013-05-30 22:21:00,71.6,65.5,29.94,East,90,0.0,0.0,81,0.00,,,0.00,WSDL version 423,2013-05-31 03:21:00,
2013-05-30 22:23:00,71.6,65.5,29.94,East,90,0.0,0.0,81,0.00,,,0.00,WSDL version 423,2013-05-31 03:23:00,
2013-05-30 22:25:00,71.6,65.5,29.94,East,90,0.0,0.0,82,0.00,,,0.00,WSDL version 423,2013-05-31 03:25:00,
2013-05-30 22:27:00,71.6,65.6,29.94,ENE,73,0.0,0.0,82,0.00,,,0.00,WSDL version 423,2013-05-31 03:27:00,
2013-05-30 22:28:00,71.6,65.7,29.94,ENE,68,0.0,0.0,82,0.00,,,0.00,WSDL version 423,2013-05-31 03:28:00,
2013-05-30 22:32:00,71.6,65.9,29.91,ENE,68,0.0,0.0,82,0.00,,,0.00,WSDL version 423,2013-05-31 03:32:00,
2013-05-30 22:33:00,71.6,65.9,29.91,ENE,68,0.0,0.0,82,0.00,,,0.00,WSDL version 423,2013-05-31 03:33:00,
2013-05-30 22:34:00,71.6,65.9,29.91,ENE,68,0.0,0.0,82,0.00,,,0.00,WSDL version 423,2013-05-31 03:34:00,
2013-05-30 22:38:00,71.6,65.9,29.91,ENE,68,0.0,0.0,82,0.00,,,0.00,WSDL version 423,2013-05-31 03:38:00,
2013-05-30 22:39:00,71.6,65.9,29.91,ENE,68,0.0,0.0,82,0.00,,,0.00,WSDL version 423,2013-05-31 03:39:00,
2013-05-30 22:40:00,71.6,65.9,29.91,ENE,68,0.0,0.0,82,0.00,,,0.00,WSDL version 423,2013-05-31 03:40:00,
2013-05-30 22:41:00,71.6,65.9,29.91,ENE,68,0.0,0.0,82,0.00,,,0.00,WSDL version 423,2013-05-31 03:41:00,
2013-05-30 22:43:00,71.6,65.9,29.91,ENE,68,0.0,0.0,82,0.00,,,0.00,WSDL version 423,2013-05-31 03:43:00,
2013-05-30 22:45:00,71.6,65.9,29.91,East,90,0.0,0.0,82,0.00,,,0.00,WSDL version 423,2013-05-31 03:45:00,
2013-05-30 22:47:00,71.6,65.9,29.91,East,90,0.0,0.0,83,0.00,,,0.00,WSDL version 423,2013-05-31 03:47:00,
2013-05-30 22:49:00,71.6,66.1,29.91,East,93,0.0,0.0,83,0.00,,,0.00,WSDL version 423,2013-05-31 03:49:00,
2013-05-30 22:50:00,71.6,66.2,29.91,East,93,0.0,0.0,84,0.00,,,0.00,WSDL version 423,2013-05-31 03:50:00,
2013-05-30 22:51:00,71.6,66.3,29.91,East,90,0.0,0.0,84,0.00,,,0.00,WSDL version 423,2013-05-31 03:51:00,
2013-05-30 22:53:00,71.6,66.5,29.91,ESE,109,0.0,0.0,84,0.00,,,0.00,WSDL version 423,2013-05-31 03:53:00,
2013-05-30 22:55:00,71.6,66.6,29.91,East,90,0.0,0.0,84,0.00,,,0.00,WSDL version 423,2013-05-31 03:55:00,
2013-05-30 22:56:00,71.5,66.6,29.91,East,90,0.0,0.0,84,0.00,,,0.00,WSDL version 423,2013-05-31 03:56:00,
2013-05-30 22:57:00,71.5,66.6,29.91,East,90,0.0,0.0,84,0.00,,,0.00,WSDL version 423,2013-05-31 03:57:00,
2013-05-30 22:59:00,71.5,66.5,29.91,East,90,0.0,0.0,84,0.00,,,0.00,WSDL version 423,2013-05-31 03:59:00,
2013-05-30 23:00:00,71.4,66.5,29.91,East,90,0.0,0.0,84,0.00,,,0.00,WSDL version 423,2013-05-31 04:00:00,
2013-05-30 23:01:00,71.4,66.5,29.91,ESE,103,0.0,0.0,84,0.00,,,0.00,WSDL version 423,2013-05-31 04:01:00,
2013-05-30 23:02:00,71.4,66.6,29.91,ESE,113,0.0,0.0,86,0.00,,,0.00,WSDL version 423,2013-05-31 04:02:00,
2013-05-30 23:03:00,71.4,66.7,29.91,ESE,109,0.0,0.0,86,0.00,,,0.00,WSDL version 423,2013-05-31 04:03:00,
2013-05-30 23:06:00,71.4,66.8,29.91,SE,129,0.0,0.0,86,0.00,,,0.00,WSDL version 423,2013-05-31 04:06:00,
2013-05-30 23:07:00,71.4,66.9,29.91,SSE,154,0.0,0.0,86,0.00,,,0.00,WSDL version 423,2013-05-31 04:07:00,
2013-05-30 23:09:00,71.4,66.9,29.91,SE,135,0.0,0.0,86,0.00,,,0.00,WSDL version 423,2013-05-31 04:09:00,
2013-05-30 23:10:00,71.5,66.9,29.91,East,101,0.0,0.0,86,0.00,,,0.00,WSDL version 423,2013-05-31 04:10:00,
2013-05-30 23:12:00,71.5,67.0,29.91,ESE,110,0.0,0.0,87,0.00,,,0.00,WSDL version 423,2013-05-31 04:12:00,
2013-05-30 23:14:00,71.6,67.2,29.91,ESE,122,0.0,0.0,87,0.00,,,0.00,WSDL version 423,2013-05-31 04:14:00,
2013-05-30 23:17:00,71.6,67.5,29.91,SE,132,0.0,0.0,87,0.00,,,0.00,WSDL version 423,2013-05-31 04:17:00,
2013-05-30 23:18:00,71.6,67.5,29.91,SE,132,0.0,0.0,87,0.00,,,0.00,WSDL version 423,2013-05-31 04:18:00,
2013-05-30 23:19:00,71.6,67.6,29.91,East,101,0.0,0.0,88,0.00,,,0.00,WSDL version 423,2013-05-31 04:19:00,
2013-05-30 23:23:00,71.8,67.9,29.91,East,90,0.0,0.0,88,0.00,,,0.00,WSDL version 423,2013-05-31 04:23:00,
2013-05-30 23:24:00,71.8,67.9,29.91,East,90,0.0,0.0,88,0.00,,,0.00,WSDL version 423,2013-05-31 04:24:00,
2013-05-30 23:26:00,71.8,67.9,29.91,East,90,0.0,0.0,88,0.00,,,0.00,WSDL version 423,2013-05-31 04:26:00,
2013-05-30 23:29:00,71.8,68.1,29.91,East,90,0.0,0.0,89,0.00,,,0.00,WSDL version 423,2013-05-31 04:29:00,
2013-05-30 23:30:00,71.8,68.2,29.91,East,90,0.0,0.0,89,0.00,,,0.00,WSDL version 423,2013-05-31 04:30:00,
2013-05-30 23:31:00,71.8,68.2,29.91,East,90,0.0,0.0,88,0.00,,,0.00,WSDL version 423,2013-05-31 04:31:00,
2013-05-30 23:33:00,71.9,68.2,29.91,ESE,103,0.0,0.0,88,0.00,,,0.00,WSDL version 423,2013-05-31 04:33:00,
2013-05-30 23:34:00,71.9,68.2,29.91,ESE,107,0.0,0.0,88,0.00,,,0.00,WSDL version 423,2013-05-31 04:34:00,
2013-05-30 23:36:00,71.9,68.3,29.91,ESE,113,0.0,0.0,89,0.00,,,0.00,WSDL version 423,2013-05-31 04:36:00,
2013-05-30 23:38:00,71.9,68.4,29.91,ENE,73,0.0,0.0,89,0.00,,,0.00,WSDL version 423,2013-05-31 04:38:00,
2013-05-30 23:40:00,71.9,68.5,29.91,ENE,68,0.0,0.0,89,0.00,,,0.00,WSDL version 423,2013-05-31 04:40:00,
2013-05-30 23:42:00,71.9,68.5,29.91,SE,125,0.0,0.0,89,0.00,,,0.00,WSDL version 423,2013-05-31 04:42:00,
2013-05-30 23:43:00,71.9,68.5,29.91,SSE,160,0.0,0.0,89,0.00,,,0.00,WSDL version 423,2013-05-31 04:43:00,
2013-05-30 23:44:00,71.9,68.5,29.91,SE,133,0.0,0.0,89,0.00,,,0.00,WSDL version 423,2013-05-31 04:44:00,
2013-05-30 23:47:00,71.9,68.6,29.91,East,90,0.0,0.0,90,0.00,,,0.00,WSDL version 423,2013-05-31 04:47:00,
2013-05-30 23:49:00,72.0,68.8,29.91,ESE,113,0.0,0.0,90,0.00,,,0.00,WSDL version 423,2013-05-31 04:49:00,
2013-05-30 23:52:00,72.1,69.0,29.91,East,90,0.0,0.0,90,0.00,,,0.00,WSDL version 423,2013-05-31 04:52:00,
2013-05-30 23:54:00,72.1,69.0,29.91,East,90,0.0,0.0,90,0.00,,,0.00,WSDL version 423,2013-05-31 04:54:00,
2013-05-30 23:56:00,72.1,69.1,29.91,East,90,0.0,0.0,91,0.00,,,0.00,WSDL version 423,2013-05-31 04:56:00,
2013-05-30 23:57:00,72.1,69.2,29.91,ESE,110,0.0,0.0,91,0.00,,,0.00,WSDL version 423,2013-05-31 04:57:00,
2013-05-30 23:59:00,72.1,69.3,29.91,SE,135,0.0,0.0,91,0.00,,,0.00,WSDL version 423,2013-05-31 04:59:00,